CST,Max TemperatureF,Mean TemperatureF,Min TemperatureF,Max Dew PointF,MeanDew PointF,Min DewpointF,Max Humidity, Mean Humidity, Min Humidity, Max Sea Level PressureIn, Mean Sea Level PressureIn, Min Sea Level PressureIn, Max VisibilityMiles, Mean VisibilityMiles, Min VisibilityMiles, Max Wind SpeedMPH, Mean Wind SpeedMPH, Max Gust SpeedMPH,PrecipitationIn, CloudCover, Events, WindDirDegrees
2012-1-1,28,24,19,25,17,10,86,70,55,30.41,30.16,29.98,10,10,5,37,25,47,0.00,6,Snow,313
2012-1-2,19,12,6,10,7,5,92,75,58,30.60,30.52,30.45,10,10,10,22,16,29,0.00,0,,324
2012-1-3,37,22,8,27,13,7,92,67,44,30.37,29.98,29.79,10,10,10,15,9,20,0.00,0,,172
2012-1-4,50,34,17,28,25,18,100,77,40,30.11,30.02,29.92,10,10,10,16,9,22,0.00,0,,264
2012-1-5,59,41,23,30,26,21,100,63,29,29.94,29.74,29.62,10,10,10,17,6,18,0.00,0,,240
2012-1-6,46,38,30,28,24,16,86,56,29,29.92,29.79,29.67,10,10,10,23,12,32,0.00,2,,292
2012-1-7,39,28,17,25,21,18,100,75,49,30.18,30.08,29.97,10,10,10,12,7,16,0.00,1,,283
2012-1-8,46,30,14,27,19,12,100,75,40,30.23,30.18,30.12,10,10,10,15,4,16,0.00,0,,218
2012-1-9,53,40,28,27,23,19,80,57,30,30.00,29.93,29.90,10,10,10,16,11,18,0.00,0,,256
2012-1-10,55,38,21,30,26,19,93,68,33,29.93,29.78,29.63,10,10,10,12,4,,0.00,0,,227
2012-1-11,39,26,12,34,19,7,100,81,65,30.00,29.85,29.61,10,6,0,32,19,44,0.01,7,Snow,336
2012-1-12,10,8,5,5,1,-2,85,76,72,30.01,29.98,29.94,10,4,0,30,22,37,0.00,7,Snow,334
2012-1-13,10,2,-7,3,-5,-13,85,76,62,30.03,30.00,29.94,10,10,10,14,8,18,0.00,0,,317
2012-1-14,30,19,8,25,17,5,93,86,75,30.03,29.97,29.93,10,9,2,14,4,,0.01,5,Snow,204
2012-1-15,42,26,10,25,20,9,100,76,49,30.00,29.77,29.62,10,10,10,14,8,22,0.00,0,,138
2012-1-16,30,20,10,25,11,7,86,79,73,30.06,29.92,29.74,10,10,3,28,20,33,0.00,3,Snow,342
2012-1-17,8,3,-2,1,-4,-8,92,72,61,30.31,30.24,30.11,10,10,2,22,16,29,0.00,2,Snow,324
2012-1-18,24,10,-5,12,0,-11,85,76,54,30.15,29.88,29.68,10,10,2,28,11,33,0.00,1,Snow,173
2012-1-19,3,-5,-13,-15,-19,-22,71,56,33,30.21,30.14,30.07,10,10,10,17,11,23,0.00,0,,292
2012-1-20,10,5,0,5,-1,-11,92,76,56,30.19,30.10,30.04,10,7,1,9,4,,0.00,7,Snow,114
2012-1-21,15,2,-11,12,-3,-17,92,85,77,30.21,30.00,29.69,10,9,2,23,6,31,0.00,3,Snow,145
2012-1-22,24,22,21,25,23,19,100,94,86,29.60,29.55,29.50,7,4,1,15,10,22,0.00,8,Snow,116
2012-1-23,24,22,19,25,18,16,100,91,86,29.98,29.80,29.60,10,7,3,23,15,28,0.00,8,,310
2012-1-24,23,12,1,21,14,0,100,90,80,30.22,30.15,29.99,10,8,0,14,6,,0.00,3,Fog,185
2012-1-25,32,26,21,30,26,21,100,94,86,30.19,30.01,29.77,7,5,2,15,7,21,0.03,6,Snow,162
2012-1-26,39,32,24,30,27,21,100,80,60,29.82,29.75,29.70,10,10,10,26,11,32,0.01,1,,283
2012-1-27,35,28,21,34,24,18,100,82,64,29.99,29.80,29.70,10,9,1,36,10,43,0.04,5,Snow,254
2012-1-28,32,23,14,25,12,9,93,64,41,30.02,29.99,29.95,10,10,2,20,13,22,0.00,2,Snow,282
2012-1-29,24,14,3,19,12,1,93,81,68,30.19,30.10,29.90,10,10,7,17,9,21,0.00,4,Snow,26
2012-1-30,51,34,17,34,25,18,100,76,44,29.76,29.63,29.57,10,10,10,13,6,17,0.00,1,,145
2012-1-31,39,32,24,34,30,25,100,91,81,29.98,29.76,29.54,10,9,1,21,7,25,0.00,4,,293